sat.trackr.live / text

‹ back to catalog

STARLINK-31905

NORAD 59896 · 2024-100M

PAYLOAD ACTIVE UNKNOWN

§ Identity

Operator
Country
US
Launch date
2024-05-28
Launch site
AFETR
Launch vehicle
Mass (kg)
RCS (m²)

Purposes: comms

External: N2YO · Heavens-Above · Gunter

§ Orbital elements

Epoch: 2026-05-25T01:08:59.771328Z

Period
94.27 min
Inclination
43.0020°
Eccentricity
0.0000988
Mean motion
15.27583227 rev/d
Perigee alt
482.4 km
Apogee alt
483.7 km
Semi-major
6,861.2 km
B*
5.8497e-5
RAAN
50.8134°
Arg perigee
275.0876°
Mean anomaly
84.9863°
Rev number
11,287

§ Raw data

STARLINK-319051 59896U 24100M   26145.04791402  .00001348  00000+0  58497-4 0  99912 59896  43.0020  50.8134 0000988 275.0876  84.9863 15.27583227112878

JSON: /api/v1/satellites/59896 · /tle

For live sub-satellite position, see the globe view (requires WebGL).

§ Visibility from observer

Set your observer location to see the next 7 days of passes ≥ 10°. The values pass through the URL so the page stays shareable.

No JS? Fill the form by hand. The geolocation button needs JavaScript.